Tracking 29058 objects as of 20-Jun-2024
HD Live streaming from Space Station
objects crossing your sky now

OV3-3

Track OV3-3 now!
10-day predictions
OV3-3 is classified as:


NORAD ID: 2389
Int'l Code: 1966-070A
Perigee: 345.0 km
Apogee: 2,042.9 km
Inclination: 81.3 °
Period: 109.1 minutes
Semi major axis: 7564 km
RCS: 0.7052 m2 (medium)
Launch date: August 4, 1966
Source: United States (US)
Launch site: AIR FORCE WESTERN TEST RANGE (AFWTR)
Your satellite tracking list
Your tracking list is empty




NASA's NSSDC Master Catalog

Two Line Element Set (TLE):
1 02389U 66070A   24171.87519292  .00014964  00000-0  75681-3 0  9993
2 02389  81.3354 241.2440 1122221 212.4452 140.2671 13.19464304501996
Source of the keplerian elements: AFSPC